Weather History for Renton, WA

Change the Weather History Date:

Monday, October 8, 2012

  Actual Average Record
Temperature  
Mean Temperature 58 °F -  
Max Temperature 72 °F 61 °F 72 °F (2012)
Min Temperature 45 °F 47 °F 44 °F (2008)
Degree Days  
Heating Degree Days 6    
Growing Degree Days 8 (Base 50)    
Moisture  
Dew Point 43 °F    
Average Humidity 62    
Maximum Humidity 83    
Minimum Humidity 35    
Precipitation  
Precipitation 0.00 in - - ()
Sea Level Pressure  
Sea Level Pressure 29.98 in    
Wind  
Wind Speed 2 mph (SE)    
Max Wind Speed 8 mph    
Max Gust Speed -    
Visibility 10 miles    
Events      
Averages and records for this station are not official NWS values.
T = Trace of Precipitation, MM = Missing Value Source: NWS Daily Summary

Daily Weather History Graph

Daily Weather History Graph

Search for Another Location

Airport:

Trip Planner

Search our weather history database for the weather conditions in past years. The results will help you decide how hot, cold, wet, or windy it might be!

Date:

Astronomy

Oct. 08, 2012 Rise Set
Actual Time 7:18 AM PDT 6:33 PM PDT
Civil Twilight 6:47 AM PDT 7:03 PM PDT
Nautical Twilight 6:12 AM PDT 7:39 PM PDT
Astronomical Twilight 5:36 AM PDT 8:15 PM PDT
Moon No Moon Rise 2:51 PM PDT (10/8)
Length of Visible Light 12h 16m
Length of Day
11h 14m
Last Quarter, 45% of the Moon is Illuminated
Oct 8
Last Quarter
Oct 15
New
Oct 21
First Quarter
Oct 29
Full
Nov 6
Last Quarter

Hourly Weather History & Observations

Time (PDT) Temp. Windchill Dew Point Humidity Pressure Visibility Wind Dir Wind Speed Gust Speed Precip Events Conditions
12:53 AM 50.0 °F - 43.0 °F 77% 29.95 in 10.0 mi Calm Calm - N/A   Clear
1:53 AM 48.0 °F - 42.1 °F 80% 29.96 in 10.0 mi Calm Calm - N/A   Clear
2:53 AM 46.9 °F - 41.0 °F 80% 29.96 in 10.0 mi ESE 3.5 mph - N/A   Clear
3:53 AM 46.9 °F - 41.0 °F 80% 29.95 in 10.0 mi ESE 3.5 mph - N/A   Clear
4:53 AM 46.0 °F 44.8 °F 41.0 °F 83% 29.96 in 10.0 mi ESE 3.5 mph - N/A   Clear
5:53 AM 45.0 °F - 39.0 °F 80% 29.96 in 10.0 mi Calm Calm - N/A   Clear
6:53 AM 45.0 °F 43.5 °F 39.0 °F 80% 29.97 in 10.0 mi ESE 3.5 mph - N/A   Clear
7:53 AM 45.0 °F 42.6 °F 37.9 °F 76% 29.97 in 10.0 mi ESE 4.6 mph - N/A   Clear
8:53 AM 48.9 °F - 41.0 °F 74% 29.99 in 9.0 mi SE 3.5 mph - N/A   Clear
9:53 AM 53.1 °F - 41.0 °F 64% 29.99 in 10.0 mi SE 4.6 mph - N/A   Clear
10:53 AM 60.1 °F - 41.0 °F 49% 29.99 in 10.0 mi SSE 8.1 mph - N/A   Clear
11:53 AM 64.0 °F - 42.1 °F 45% 29.99 in 10.0 mi Variable 4.6 mph - N/A   Clear
12:53 PM 66.9 °F - 44.1 °F 44% 29.98 in 10.0 mi SSE 3.5 mph - N/A   Clear
1:53 PM 69.1 °F - 43.0 °F 39% 29.97 in 10.0 mi SSE 4.6 mph - N/A   Clear
2:53 PM 71.1 °F - 43.0 °F 36% 29.96 in 10.0 mi SE 4.6 mph - N/A   Clear
3:53 PM 72.0 °F - 44.1 °F 37% 29.96 in 10.0 mi Variable 3.5 mph - N/A   Clear
4:53 PM 72.0 °F - 43.0 °F 35% 29.96 in 10.0 mi Calm Calm - N/A   Clear
5:53 PM 69.1 °F - 43.0 °F 39% 29.96 in 10.0 mi SSW 3.5 mph - N/A   Clear
6:53 PM 64.4 °F - 46.4 °F 52% 29.95 in 10.0 mi South 3.5 mph - N/A   Clear
7:53 PM 62.1 °F - 46.9 °F 58% 29.98 in 10.0 mi Calm Calm - N/A   Clear
8:53 PM 59.0 °F - 46.9 °F 64% 30.00 in 10.0 mi Calm Calm - N/A   Clear
9:53 PM 57.9 °F - 48.0 °F 70% 30.03 in 10.0 mi South 5.8 mph - N/A   Clear
10:53 PM 55.9 °F - 48.0 °F 75% 30.05 in 10.0 mi South 5.8 mph - N/A   Clear
11:53 PM 52.0 °F - 46.0 °F 80% 30.06 in 10.0 mi Calm Calm - N/A   Clear